TimeCDT,TemperatureF,Dew PointF,Humidity,Sea Level PressureIn,VisibilityMPH,Wind Direction,Wind SpeedMPH,Gust SpeedMPH,PrecipitationIn,Events,Conditions,WindDirDegrees,DateUTC
1:15 AM,42.3,40.5,93,29.50,5.0,NW,16.1,26.5,N/A,,Drizzle,320,2012-10-19 06:15:00
1:35 AM,42.3,41.0,95,29.51,5.0,NW,15.0,26.5,N/A,Rain,Light Rain,320,2012-10-19 06:35:00
1:55 AM,42.3,41.0,95,29.51,5.0,NW,16.1,28.8,N/A,Rain,Light Rain,320,2012-10-19 06:55:00
2:15 AM,42.3,41.0,95,29.51,10.0,NNW,24.2,29.9,N/A,Rain,Light Rain,330,2012-10-19 07:15:00
2:35 AM,42.4,41.0,95,29.52,10.0,NNW,17.3,29.9,0.01,Rain,Light Rain,330,2012-10-19 07:35:00
2:55 AM,42.3,41.0,95,29.52,7.0,NNW,18.4,28.8,0.01,Rain,Light Rain,330,2012-10-19 07:55:00
3:15 AM,42.3,41.0,95,29.53,10.0,NNW,21.9,29.9,N/A,Rain,Rain,330,2012-10-19 08:15:00
3:35 AM,42.1,41.0,96,29.53,4.0,NNW,16.1,24.2,N/A,Rain,Light Rain,330,2012-10-19 08:35:00
3:55 AM,42.1,41.2,97,29.54,3.0,NNW,17.3,26.5,0.01,Rain,Light Rain,330,2012-10-19 08:55:00
4:15 AM,41.9,41.0,97,29.54,3.0,NNW,13.8,25.3,N/A,,Light Drizzle,330,2012-10-19 09:15:00
4:35 AM,41.9,41.0,97,29.55,4.0,NNW,17.3,26.5,N/A,,Drizzle,330,2012-10-19 09:35:00
4:55 AM,41.9,41.0,97,29.56,3.0,NNW,16.1,27.6,N/A,Rain,Light Rain,330,2012-10-19 09:55:00
5:15 AM,41.9,41.0,97,29.57,3.0,NNW,19.6,26.5,N/A,Rain,Light Rain,330,2012-10-19 10:15:00
5:35 AM,41.9,41.0,97,29.58,3.0,NNW,16.1,25.3,N/A,,Overcast,330,2012-10-19 10:35:00
5:55 AM,41.9,41.0,97,29.59,3.0,NNW,12.7,24.2,N/A,,Overcast,330,2012-10-19 10:55:00
6:15 AM,41.7,40.8,97,29.60,4.0,NNW,15.0,27.6,N/A,,Overcast,330,2012-10-19 11:15:00
6:35 AM,41.5,41.0,98,29.60,4.0,NNW,13.8,21.9,N/A,,Overcast,330,2012-10-19 11:35:00
6:55 AM,41.5,41.0,98,29.61,4.0,NNW,13.8,23.0,N/A,,Overcast,330,2012-10-19 11:55:00
7:15 AM,41.5,40.6,97,29.62,7.0,NNW,15.0,24.2,N/A,,Overcast,330,2012-10-19 12:15:00
7:35 AM,41.5,40.6,97,29.62,4.0,NNW,16.1,23.0,N/A,,Overcast,330,2012-10-19 12:35:00
7:55 AM,41.5,40.3,95,29.63,10.0,NNW,13.8,24.2,N/A,,Overcast,340,2012-10-19 12:55:00
8:15 AM,41.5,40.1,95,29.64,5.0,NNW,13.8,27.6,N/A,,Overcast,330,2012-10-19 13:15:00
8:35 AM,41.9,40.3,94,29.65,10.0,NNW,15.0,23.0,N/A,,Overcast,330,2012-10-19 13:35:00
8:55 AM,42.1,40.3,93,29.66,10.0,NNW,11.5,21.9,N/A,,Overcast,330,2012-10-19 13:55:00
9:15 AM,41.9,40.3,94,29.67,7.0,NW,11.5,19.6,N/A,,Overcast,320,2012-10-19 14:15:00
9:35 AM,41.9,40.5,95,29.68,7.0,NW,15.0,24.2,N/A,,Overcast,320,2012-10-19 14:35:00
9:55 AM,41.7,40.3,95,29.69,3.0,NW,15.0,21.9,N/A,,Overcast,320,2012-10-19 14:55:00
10:15 AM,41.9,40.6,95,29.69,5.0,NNW,17.3,21.9,N/A,,Overcast,330,2012-10-19 15:15:00
10:35 AM,42.1,40.6,95,29.69,10.0,NNW,15.0,20.7,N/A,,Overcast,330,2012-10-19 15:35:00
10:55 AM,42.3,40.8,95,29.70,7.0,NW,12.7,21.9,N/A,,Overcast,320,2012-10-19 15:55:00
11:15 AM,43.2,41.4,93,29.70,10.0,NNW,15.0,24.2,N/A,,Overcast,340,2012-10-19 16:15:00
11:35 AM,43.0,41.0,93,29.72,10.0,NW,15.0,25.3,N/A,,Overcast,320,2012-10-19 16:35:00
11:55 AM,43.3,41.0,91,29.71,10.0,NW,16.1,23.0,N/A,,Overcast,320,2012-10-19 16:55:00
12:15 PM,43.3,41.0,91,29.72,10.0,NNW,12.7,20.7,N/A,,Overcast,330,2012-10-19 17:15:00
12:35 PM,43.3,41.2,92,29.72,10.0,NNW,17.3,28.8,N/A,,Overcast,330,2012-10-19 17:35:00
12:55 PM,43.2,41.0,92,29.72,10.0,NW,12.7,21.9,N/A,,Overcast,320,2012-10-19 17:55:00
1:15 PM,43.7,41.2,91,29.72,10.0,NW,15.0,21.9,N/A,,Overcast,320,2012-10-19 18:15:00
1:35 PM,43.3,41.0,91,29.72,5.0,NW,13.8,21.9,N/A,,Overcast,320,2012-10-19 18:35:00
1:55 PM,43.9,41.4,91,29.72,10.0,NNW,19.6,25.3,N/A,,Overcast,330,2012-10-19 18:55:00
2:15 PM,43.7,41.4,91,29.72,7.0,NNW,15.0,20.7,N/A,,Overcast,330,2012-10-19 19:15:00
2:35 PM,43.7,41.0,90,29.73,10.0,NNW,13.8,26.5,N/A,,Overcast,330,2012-10-19 19:35:00
2:55 PM,43.7,41.0,90,29.72,10.0,NW,11.5,21.9,N/A,,Overcast,320,2012-10-19 19:55:00
3:15 PM,43.9,41.2,90,29.72,10.0,NW,15.0,20.7,N/A,,Overcast,320,2012-10-19 20:15:00
3:35 PM,43.9,40.8,89,29.72,10.0,NW,13.8,19.6,N/A,,Overcast,320,2012-10-19 20:35:00
3:55 PM,44.6,41.0,87,29.72,10.0,NW,11.5,19.6,N/A,,Overcast,310,2012-10-19 20:55:00
4:15 PM,44.2,40.5,87,29.73,10.0,NW,10.4,20.7,N/A,,Overcast,320,2012-10-19 21:15:00
4:35 PM,43.7,40.6,89,29.74,10.0,NW,10.4,18.4,N/A,,Overcast,320,2012-10-19 21:35:00
4:55 PM,43.5,40.5,89,29.75,10.0,NW,12.7,17.3,N/A,,Overcast,320,2012-10-19 21:55:00
5:15 PM,43.7,40.6,89,29.75,10.0,NNW,6.9,-,N/A,,Overcast,330,2012-10-19 22:15:00
5:35 PM,43.2,40.5,90,29.75,5.0,NNW,10.4,18.4,N/A,,Overcast,340,2012-10-19 22:35:00
5:55 PM,42.8,41.2,94,29.76,3.0,NNW,9.2,-,N/A,,Overcast,330,2012-10-19 22:55:00
6:15 PM,42.8,41.2,94,29.76,7.0,NW,5.8,-,N/A,,Overcast,320,2012-10-19 23:15:00
6:35 PM,42.3,41.0,95,29.77,4.0,NNW,9.2,-,N/A,Rain,Light Rain,330,2012-10-19 23:35:00
6:55 PM,42.3,41.0,95,29.77,4.0,NNW,10.4,-,N/A,,Overcast,330,2012-10-19 23:55:00
7:15 PM,42.1,41.2,97,29.77,4.0,NW,8.1,-,N/A,,Overcast,320,2012-10-20 00:15:00
7:35 PM,42.1,41.2,97,29.77,10.0,NW,5.8,-,N/A,,Overcast,320,2012-10-20 00:35:00
7:55 PM,42.1,41.0,96,29.77,10.0,NNW,8.1,-,N/A,,Overcast,330,2012-10-20 00:55:00
8:15 PM,42.3,41.0,95,29.78,10.0,NNW,5.8,-,N/A,,Overcast,330,2012-10-20 01:15:00
8:35 PM,42.4,41.0,95,29.79,10.0,NW,5.8,-,N/A,,Overcast,310,2012-10-20 01:35:00
8:55 PM,42.4,41.0,95,29.79,10.0,NW,4.6,-,N/A,,Overcast,320,2012-10-20 01:55:00
9:15 PM,42.8,41.0,93,29.79,10.0,NW,5.8,-,N/A,,Overcast,320,2012-10-20 02:15:00
9:35 PM,42.8,41.0,93,29.80,10.0,NW,3.5,-,N/A,,Overcast,320,2012-10-20 02:35:00
9:55 PM,42.8,41.0,93,29.78,10.0,NNW,5.8,-,N/A,,Overcast,330,2012-10-20 02:55:00
10:15 PM,42.8,41.2,94,29.78,10.0,NW,3.5,-,N/A,,Overcast,310,2012-10-20 03:15:00
10:35 PM,42.8,41.2,94,29.79,10.0,WNW,5.8,-,N/A,,Overcast,290,2012-10-20 03:35:00
10:55 PM,42.8,41.2,94,29.78,10.0,NW,4.6,-,N/A,,Overcast,310,2012-10-20 03:55:00
11:15 PM,42.8,41.2,94,29.78,10.0,WNW,3.5,-,N/A,,Overcast,300,2012-10-20 04:15:00
11:35 PM,42.6,41.2,95,29.79,10.0,WNW,4.6,-,N/A,,Overcast,290,2012-10-20 04:35:00
11:55 PM,42.6,41.2,95,29.78,10.0,WNW,3.5,-,N/A,,Overcast,300,2012-10-20 04:55:00